Regional Weather Roundup
Issued by NWS

Home | Current Version | Previous Version | Text Only | Print | Product List | Glossary Off
Versions: 1 2 3 4 5 6 7 8 9 10 11 12 13 14 15 16 17 18 19 20 21 22 23 24 25 26 27 28 29 30 31 32 33 34 35 36 37 38 39 40 41 42 43 44 45 46 47 48 49 50

000
ASUS43 KBIS 301310
RWRND

NORTH DAKOTA REGIONAL WEATHER ROUNDUP
NATIONAL WEATHER SERVICE BISMARCK ND
800 AM CDT THU OCT 30 2014

NOTE: "FAIR" INDICATES FEW OR NO CLOUDS BELOW 12,000 FEET WITH NO
SIGNIFICANT WEATHER AND/OR OBSTRUCTIONS TO VISIBILITY.


NDZ001>003-009>011-017-301400-
NORTHWEST NORTH DAKOTA

CITY           SKY/WX    TMP DP  RH WIND       PRES   REMARKS
WILLISTON      CLOUDY    37  33  85 N8        30.30R
MINOT          CLOUDY    31  29  92 N8        30.27R
MINOT AFB      CLOUDY    32  32  99 N7        30.27R
$$

NDZ018>021-031>035-040>046-301400-
SOUTHWEST NORTH DAKOTA

CITY           SKY/WX    TMP DP  RH WIND       PRES   REMARKS
BISMARCK       CLEAR     32  30  92 NW12      30.23R
DICKINSON      CLOUDY    34  32  92 NW10      30.24R FOG
GARRISON         N/A     30  28  92 N5        30.25R
HETTINGER ARPT CLOUDY    33  31  92 N13       30.25R FOG
$$

NDZ004>008-012>016-024-026-027-054-301400-
NORTHEAST NORTH DAKOTA

CITY           SKY/WX    TMP DP  RH WIND       PRES   REMARKS
GRAND FORKS    MOCLDY    29  27  92 N10       30.16R WCI  20
GRND FRKS AFB  CLOUDY    29  29  99 N9        30.17R
DEVILS LAKE    CLOUDY    32  25  74 N15       30.19R
$$

NDZ022-023-025-028>030-036>039-047>053-301400-
SOUTHEAST NORTH DAKOTA

CITY           SKY/WX    TMP DP  RH WIND       PRES   REMARKS
FARGO          LGT RAIN  40  38  93 N10       30.10R FOG
JAMESTOWN      MOCLDY    34  31  88 N16       30.14R
$$




USA.gov is the U.S. government's official web portal to all federal, state and local government web resources and services.